User: anonymous   Login
Location: Unspecified
(0.0000°N, 0.0000°E)
Time: 10:34:53
(UTC+00:00)
Language:

NOSS 3-1 (A) - Orbit

View from above orbital plane
View from above orbital plane
View from above satellite
View from above satellite

Ground track
Ground track

The orbit data is extracted from the following two-line orbital elements,

1 26905U 01040A   18204.80198019 0.00000020  00000-0  22318-4 0    03
2 26905  63.4130  87.8473 0406000 358.9495   1.0505 13.40762630    04
Epoch (UTC): 23 July 2018 19:14:51
Eccentricity: 0.0406000
inclination: 63.4130°
perigee height: 802 km
apogee height: 1410 km
right ascension of ascending node: 87.8473°
argument of perigee: 358.9495°
revolutions per day: 13.40762630
mean anomaly at epoch: 1.0505°
orbit number at epoch: 0

The dashed part of the orbit path shows where the satellite is in the earth's shadow,  

DLR